Time,TemperatureF,DewpointF,PressureIn,WindDirection,WindDirectionDegrees,WindSpeedMPH,WindSpeedGustMPH,Humidity,HourlyPrecipIn,Conditions,Clouds,dailyrainin,SoftwareType,DateUTC
2013-01-18 00:05:00,23.6,14.6,30.37,WNW,291,3.0,3.0,68,0.00,,,0.00,Wunderground v.1.15,2013-01-18 05:05:00,
2013-01-18 00:10:00,23.6,14.9,30.37,WSW,249,3.0,3.0,69,0.00,,,0.00,Wunderground v.1.15,2013-01-18 05:10:00,
2013-01-18 00:15:00,23.6,15.2,30.37,NW,312,2.0,4.0,70,0.00,,,0.00,Wunderground v.1.15,2013-01-18 05:15:00,
2013-01-18 00:20:00,23.7,15.3,30.37,WNW,285,2.0,2.0,70,0.00,,,0.00,Wunderground v.1.15,2013-01-18 05:20:00,
2013-01-18 00:25:00,23.7,15.3,30.37,SW,221,3.0,3.0,70,0.00,,,0.00,Wunderground v.1.15,2013-01-18 05:25:00,
2013-01-18 00:30:00,23.7,15.3,30.37,WSW,242,3.0,3.0,70,0.00,,,0.00,Wunderground v.1.15,2013-01-18 05:30:00,
2013-01-18 00:35:00,23.9,15.2,30.37,WNW,300,4.0,6.0,69,0.00,,,0.00,Wunderground v.1.15,2013-01-18 05:35:00,
2013-01-18 00:40:00,24.1,15.7,30.37,West,270,6.0,6.0,70,0.00,,,0.00,Wunderground v.1.15,2013-01-18 05:40:00,
2013-01-18 00:45:00,24.2,15.5,30.37,WNW,290,6.0,6.0,69,0.00,,,0.00,Wunderground v.1.15,2013-01-18 05:45:00,
2013-01-18 00:50:00,24.3,15.3,30.37,WNW,293,6.0,6.0,68,0.00,,,0.00,Wunderground v.1.15,2013-01-18 05:50:00,
2013-01-18 00:55:00,24.3,15.3,30.37,West,273,6.0,7.0,68,0.00,,,0.00,Wunderground v.1.15,2013-01-18 05:55:00,
2013-01-18 01:00:00,24.3,15.3,30.37,WNW,293,5.0,6.0,68,0.00,,,0.00,Wunderground v.1.15,2013-01-18 06:00:00,
2013-01-18 01:10:00,24.3,15.3,30.37,WNW,297,6.0,6.0,68,0.00,,,0.00,Wunderground v.1.15,2013-01-18 06:10:00,
2013-01-18 01:15:00,24.3,14.9,30.38,WNW,299,5.0,7.0,67,0.00,,,0.00,Wunderground v.1.15,2013-01-18 06:15:00,
2013-01-18 01:20:00,24.4,14.7,30.38,WNW,283,6.0,7.0,66,0.00,,,0.00,Wunderground v.1.15,2013-01-18 06:20:00,
2013-01-18 01:25:00,24.4,14.7,30.38,WNW,287,7.0,7.0,66,0.00,,,0.00,Wunderground v.1.15,2013-01-18 06:25:00,
2013-01-18 01:30:00,24.4,14.7,30.39,West,281,7.0,7.0,66,0.00,,,0.00,Wunderground v.1.15,2013-01-18 06:30:00,
2013-01-18 01:35:00,24.4,14.7,30.39,West,274,7.0,8.0,66,0.00,,,0.00,Wunderground v.1.15,2013-01-18 06:35:00,
2013-01-18 01:45:00,24.4,14.3,30.40,WNW,297,7.0,9.0,65,0.00,,,0.00,Wunderground v.1.15,2013-01-18 06:45:00,
2013-01-18 01:55:00,24.5,14.8,30.40,WNW,287,6.0,7.0,66,0.00,,,0.00,Wunderground v.1.15,2013-01-18 06:55:00,
2013-01-18 02:00:00,24.6,14.5,30.41,West,266,6.0,7.0,65,0.00,,,0.00,Wunderground v.1.15,2013-01-18 07:00:00,
2013-01-18 02:10:00,24.6,14.9,30.41,WNW,302,6.0,7.0,66,0.00,,,0.00,Wunderground v.1.15,2013-01-18 07:10:00,
2013-01-18 02:15:00,24.6,14.9,30.41,West,274,6.0,7.0,66,0.00,,,0.00,Wunderground v.1.15,2013-01-18 07:15:00,
2013-01-18 02:20:00,24.6,14.9,30.42,WNW,287,6.0,8.0,66,0.00,,,0.00,Wunderground v.1.15,2013-01-18 07:20:00,
2013-01-18 02:30:00,24.5,15.1,30.42,West,273,6.0,6.0,67,0.00,,,0.00,Wunderground v.1.15,2013-01-18 07:30:00,
2013-01-18 02:35:00,24.5,15.1,30.43,WNW,295,6.0,9.0,67,0.00,,,0.00,Wunderground v.1.15,2013-01-18 07:35:00,
2013-01-18 02:40:00,24.6,14.9,30.43,WNW,290,6.0,9.0,66,0.00,,,0.00,Wunderground v.1.15,2013-01-18 07:40:00,
2013-01-18 02:45:00,24.5,15.1,30.43,West,279,6.0,9.0,67,0.00,,,0.00,Wunderground v.1.15,2013-01-18 07:45:00,
2013-01-18 02:50:00,24.6,15.2,30.42,WNW,298,6.0,6.0,67,0.00,,,0.00,Wunderground v.1.15,2013-01-18 07:50:00,
2013-01-18 02:55:00,24.5,14.8,30.42,WNW,290,6.0,6.0,66,0.00,,,0.00,Wunderground v.1.15,2013-01-18 07:55:00,
2013-01-18 03:00:00,24.5,14.8,30.42,WNW,290,5.0,6.0,66,0.00,,,0.00,Wunderground v.1.15,2013-01-18 08:00:00,
2013-01-18 03:10:00,24.4,14.7,30.42,WNW,294,4.0,4.0,66,0.00,,,0.00,Wunderground v.1.15,2013-01-18 08:10:00,
2013-01-18 03:15:00,24.4,14.7,30.42,WNW,282,5.0,5.0,66,0.00,,,0.00,Wunderground v.1.15,2013-01-18 08:15:00,
2013-01-18 03:25:00,24.3,14.9,30.43,WNW,290,5.0,5.0,67,0.00,,,0.00,Wunderground v.1.15,2013-01-18 08:25:00,
2013-01-18 03:30:00,24.2,15.2,30.43,WNW,297,5.0,6.0,68,0.00,,,0.00,Wunderground v.1.15,2013-01-18 08:30:00,
2013-01-18 03:35:00,24.2,15.2,30.43,West,269,6.0,6.0,68,0.00,,,0.00,Wunderground v.1.15,2013-01-18 08:35:00,
2013-01-18 03:40:00,24.3,15.3,30.43,WNW,296,5.0,9.0,68,0.00,,,0.00,Wunderground v.1.15,2013-01-18 08:40:00,
2013-01-18 03:45:00,24.4,15.3,30.43,WNW,295,5.0,9.0,68,0.00,,,0.00,Wunderground v.1.15,2013-01-18 08:45:00,
2013-01-18 03:55:00,24.3,15.3,30.43,West,280,4.0,5.0,68,0.00,,,0.00,Wunderground v.1.15,2013-01-18 08:55:00,
2013-01-18 04:00:00,24.2,15.2,30.43,WNW,288,4.0,4.0,68,0.00,,,0.00,Wunderground v.1.15,2013-01-18 09:00:00,
2013-01-18 04:10:00,23.8,15.1,30.42,WNW,291,1.0,2.0,69,0.00,,,0.00,Wunderground v.1.15,2013-01-18 09:10:00,
2013-01-18 04:15:00,23.6,14.9,30.42,WNW,285,2.0,2.0,69,0.00,,,0.00,Wunderground v.1.15,2013-01-18 09:15:00,
2013-01-18 04:20:00,23.4,15.1,30.42,WNW,283,2.0,2.0,70,0.00,,,0.00,Wunderground v.1.15,2013-01-18 09:20:00,
2013-01-18 04:30:00,22.7,15.0,30.42,WSW,239,0.0,0.0,72,0.00,,,0.00,Wunderground v.1.15,2013-01-18 09:30:00,
2013-01-18 04:35:00,22.4,14.7,30.42,West,278,0.0,0.0,72,0.00,,,0.00,Wunderground v.1.15,2013-01-18 09:35:00,
2013-01-18 04:40:00,22.1,14.4,30.42,WSW,239,0.0,1.0,72,0.00,,,0.00,Wunderground v.1.15,2013-01-18 09:40:00,
2013-01-18 04:45:00,21.8,14.2,30.42,SW,229,0.0,1.0,72,0.00,,,0.00,Wunderground v.1.15,2013-01-18 09:45:00,
2013-01-18 04:50:00,21.6,14.3,30.42,WSW,256,0.0,0.0,73,0.00,,,0.00,Wunderground v.1.15,2013-01-18 09:50:00,
2013-01-18 05:00:00,21.2,14.2,30.42,WSW,241,0.0,1.0,74,0.00,,,0.00,Wunderground v.1.15,2013-01-18 10:00:00,
2013-01-18 05:10:00,21.1,14.7,30.43,SW,221,1.0,1.0,76,0.00,,,0.00,Wunderground v.1.15,2013-01-18 10:10:00,
2013-01-18 05:15:00,21.1,15.0,30.42,SW,225,1.0,2.0,77,0.00,,,0.00,Wunderground v.1.15,2013-01-18 10:15:00,
2013-01-18 05:20:00,21.0,14.9,30.43,WSW,248,2.0,2.0,77,0.00,,,0.00,Wunderground v.1.15,2013-01-18 10:20:00,
2013-01-18 05:25:00,20.8,15.0,30.43,SW,224,2.0,2.0,78,0.00,,,0.00,Wunderground v.1.15,2013-01-18 10:25:00,
2013-01-18 05:35:00,20.6,14.8,30.43,West,259,0.0,1.0,78,0.00,,,0.00,Wunderground v.1.15,2013-01-18 10:35:00,
2013-01-18 05:40:00,20.6,15.1,30.43,SW,236,1.0,1.0,79,0.00,,,0.00,Wunderground v.1.15,2013-01-18 10:40:00,
2013-01-18 05:45:00,20.7,15.2,30.43,WSW,257,2.0,2.0,79,0.00,,,0.00,Wunderground v.1.15,2013-01-18 10:45:00,
2013-01-18 05:50:00,20.7,15.2,30.43,WSW,239,2.0,2.0,79,0.00,,,0.00,Wunderground v.1.15,2013-01-18 10:50:00,
2013-01-18 05:55:00,20.7,15.2,30.43,SSW,200,2.0,2.0,79,0.00,,,0.00,Wunderground v.1.15,2013-01-18 10:55:00,
2013-01-18 06:00:00,20.8,15.0,30.43,WSW,254,3.0,4.0,78,0.00,,,0.00,Wunderground v.1.15,2013-01-18 11:00:00,
2013-01-18 06:10:00,20.8,15.0,30.43,WSW,242,3.0,4.0,78,0.00,,,0.00,Wunderground v.1.15,2013-01-18 11:10:00,
2013-01-18 06:15:00,20.9,15.1,30.43,WSW,246,3.0,4.0,78,0.00,,,0.00,Wunderground v.1.15,2013-01-18 11:15:00,
2013-01-18 06:20:00,20.8,15.0,30.43,SW,215,2.0,2.0,78,0.00,,,0.00,Wunderground v.1.15,2013-01-18 11:20:00,
2013-01-18 06:25:00,20.8,15.0,30.43,WSW,252,2.0,3.0,78,0.00,,,0.00,Wunderground v.1.15,2013-01-18 11:25:00,
2013-01-18 06:30:00,20.8,15.0,30.43,WNW,283,2.0,2.0,78,0.00,,,0.00,Wunderground v.1.15,2013-01-18 11:30:00,
2013-01-18 06:40:00,20.8,15.0,30.43,WSW,249,1.0,2.0,78,0.00,,,0.00,Wunderground v.1.15,2013-01-18 11:40:00,
2013-01-18 06:45:00,20.8,15.0,30.43,WNW,287,2.0,3.0,78,0.00,,,0.00,Wunderground v.1.15,2013-01-18 11:45:00,
2013-01-18 06:50:00,20.7,14.9,30.44,SW,214,2.0,3.0,78,0.00,,,0.00,Wunderground v.1.15,2013-01-18 11:50:00,
2013-01-18 06:55:00,20.7,14.9,30.44,WSW,253,2.0,3.0,78,0.00,,,0.00,Wunderground v.1.15,2013-01-18 11:55:00,
2013-01-18 07:00:00,20.7,14.9,30.44,WNW,285,2.0,2.0,78,0.00,,,0.00,Wunderground v.1.15,2013-01-18 12:00:00,
2013-01-18 07:10:00,20.6,14.8,30.44,SW,234,1.0,2.0,78,0.00,,,0.00,Wunderground v.1.15,2013-01-18 12:10:00,
2013-01-18 07:15:00,20.6,15.1,30.44,SW,233,2.0,2.0,79,0.00,,,0.00,Wunderground v.1.15,2013-01-18 12:15:00,
2013-01-18 07:20:00,20.6,15.1,30.44,WSW,251,2.0,2.0,79,0.00,,,0.00,Wunderground v.1.15,2013-01-18 12:20:00,
2013-01-18 07:25:00,20.6,15.1,30.44,SW,226,2.0,3.0,79,0.00,,,0.00,Wunderground v.1.15,2013-01-18 12:25:00,
2013-01-18 07:30:00,20.6,15.1,30.43,West,260,2.0,3.0,79,0.00,,,0.00,Wunderground v.1.15,2013-01-18 12:30:00,
2013-01-18 07:35:00,20.6,15.1,30.43,WSW,248,2.0,3.0,79,0.00,,,0.00,Wunderground v.1.15,2013-01-18 12:35:00,
2013-01-18 07:40:00,20.6,15.1,30.43,WNW,290,3.0,3.0,79,0.00,,,0.00,Wunderground v.1.15,2013-01-18 12:40:00,
2013-01-18 07:45:00,20.6,15.1,30.43,WSW,248,2.0,3.0,79,0.00,,,0.00,Wunderground v.1.15,2013-01-18 12:45:00,
2013-01-18 07:50:00,20.6,15.4,30.43,WSW,256,1.0,1.0,80,0.00,,,0.00,Wunderground v.1.15,2013-01-18 12:50:00,
2013-01-18 07:55:00,20.6,15.4,30.43,SW,228,1.0,3.0,80,0.00,,,0.00,Wunderground v.1.15,2013-01-18 12:55:00,
2013-01-18 08:00:00,20.6,15.1,30.43,WSW,239,2.0,2.0,79,0.00,,,0.00,Wunderground v.1.15,2013-01-18 13:00:00,
2013-01-18 08:10:00,20.6,15.4,30.43,SW,215,2.0,2.0,80,0.00,,,0.00,Wunderground v.1.15,2013-01-18 13:10:00,
2013-01-18 08:15:00,20.5,15.3,30.43,SW,236,3.0,4.0,80,0.00,,,0.00,Wunderground v.1.15,2013-01-18 13:15:00,
2013-01-18 08:20:00,20.4,15.5,30.43,SSW,204,3.0,3.0,81,0.00,,,0.00,Wunderground v.1.15,2013-01-18 13:20:00,
2013-01-18 08:25:00,20.4,15.8,30.44,SSW,197,3.0,3.0,82,0.00,,,0.00,Wunderground v.1.15,2013-01-18 13:25:00,
2013-01-18 08:30:00,20.4,15.8,30.44,SSW,211,2.0,2.0,82,0.00,,,0.00,Wunderground v.1.15,2013-01-18 13:30:00,
2013-01-18 08:35:00,20.4,15.8,30.43,SW,215,2.0,2.0,82,0.00,,,0.00,Wunderground v.1.15,2013-01-18 13:35:00,
2013-01-18 08:45:00,20.7,16.1,30.43,SW,228,3.0,5.0,82,0.00,,,0.00,Wunderground v.1.15,2013-01-18 13:45:00,
2013-01-18 08:50:00,20.8,16.2,30.43,SSW,204,4.0,4.0,82,0.00,,,0.00,Wunderground v.1.15,2013-01-18 13:50:00,
2013-01-18 08:55:00,20.8,16.2,30.43,SW,233,5.0,6.0,82,0.00,,,0.00,Wunderground v.1.15,2013-01-18 13:55:00,
2013-01-18 09:00:00,20.9,16.3,30.43,WSW,237,4.0,4.0,82,0.00,,,0.00,Wunderground v.1.15,2013-01-18 14:00:00,
2013-01-18 09:10:00,21.3,16.7,30.43,SW,235,5.0,5.0,82,0.00,,,0.00,Wunderground v.1.15,2013-01-18 14:10:00,
2013-01-18 09:20:00,21.6,16.7,30.43,SW,214,5.0,5.0,81,0.00,,,0.00,Wunderground v.1.15,2013-01-18 14:20:00,
2013-01-18 09:25:00,21.8,16.6,30.43,SSW,210,4.0,5.0,80,0.00,,,0.00,Wunderground v.1.15,2013-01-18 14:25:00,
2013-01-18 09:30:00,22.0,16.8,30.43,SW,229,4.0,5.0,80,0.00,,,0.00,Wunderground v.1.15,2013-01-18 14:30:00,
2013-01-18 09:35:00,22.2,16.4,30.43,SW,236,5.0,5.0,78,0.00,,,0.00,Wunderground v.1.15,2013-01-18 14:35:00,
2013-01-18 09:40:00,22.4,16.9,30.43,SW,224,6.0,6.0,79,0.00,,,0.00,Wunderground v.1.15,2013-01-18 14:40:00,
2013-01-18 09:50:00,22.9,16.8,30.43,West,260,5.0,5.0,77,0.00,,,0.00,Wunderground v.1.15,2013-01-18 14:50:00,
2013-01-18 09:55:00,23.1,17.3,30.43,SW,231,4.0,5.0,78,0.00,,,0.00,Wunderground v.1.15,2013-01-18 14:55:00,
2013-01-18 10:00:00,23.3,17.2,30.43,SW,214,4.0,7.0,77,0.00,,,0.00,Wunderground v.1.15,2013-01-18 15:00:00,
2013-01-18 10:10:00,23.5,17.0,30.43,South,183,5.0,5.0,76,0.00,,,0.00,Wunderground v.1.15,2013-01-18 15:10:00,
2013-01-18 10:15:00,23.7,17.2,30.42,SW,224,5.0,6.0,76,0.00,,,0.00,Wunderground v.1.15,2013-01-18 15:15:00,
2013-01-18 10:25:00,23.9,17.1,30.43,SSW,208,7.0,7.0,75,0.00,,,0.00,Wunderground v.1.15,2013-01-18 15:25:00,
2013-01-18 10:30:00,24.1,17.6,30.43,SW,218,6.0,6.0,76,0.00,,,0.00,Wunderground v.1.15,2013-01-18 15:30:00,
2013-01-18 10:35:00,24.5,18.0,30.42,SW,214,5.0,6.0,76,0.00,,,0.00,Wunderground v.1.15,2013-01-18 15:35:00,
2013-01-18 10:40:00,24.6,17.8,30.42,SSW,203,6.0,7.0,75,0.00,,,0.00,Wunderground v.1.15,2013-01-18 15:40:00,
2013-01-18 10:45:00,24.9,18.1,30.42,SW,236,6.0,7.0,75,0.00,,,0.00,Wunderground v.1.15,2013-01-18 15:45:00,
2013-01-18 10:50:00,25.3,18.8,30.42,SW,228,6.0,6.0,76,0.00,,,0.00,Wunderground v.1.15,2013-01-18 15:50:00,
2013-01-18 10:55:00,25.9,18.7,30.42,SW,221,6.0,10.0,74,0.00,,,0.00,Wunderground v.1.15,2013-01-18 15:55:00,
2013-01-18 11:00:00,26.1,18.6,30.42,SW,233,8.0,11.0,73,0.00,,,0.00,Wunderground v.1.15,2013-01-18 16:00:00,
2013-01-18 11:10:00,26.5,18.7,30.42,South,174,8.0,9.0,72,0.00,,,0.00,Wunderground v.1.15,2013-01-18 16:10:00,
2013-01-18 11:15:00,26.5,19.0,30.41,SW,219,9.0,10.0,73,0.00,,,0.00,Wunderground v.1.15,2013-01-18 16:15:00,
2013-01-18 11:25:00,27.2,19.4,30.41,SSW,212,8.0,12.0,72,0.00,,,0.00,Wunderground v.1.15,2013-01-18 16:25:00,
2013-01-18 11:30:00,27.1,19.3,30.41,SW,219,9.0,12.0,72,0.00,,,0.00,Wunderground v.1.15,2013-01-18 16:30:00,
2013-01-18 11:35:00,27.3,19.1,30.41,SW,236,10.0,12.0,71,0.00,,,0.00,Wunderground v.1.15,2013-01-18 16:35:00,
2013-01-18 11:40:00,27.2,18.7,30.40,SSW,197,10.0,10.0,70,0.00,,,0.00,Wunderground v.1.15,2013-01-18 16:40:00,
2013-01-18 11:45:00,27.2,19.0,30.40,SW,219,9.0,10.0,71,0.00,,,0.00,Wunderground v.1.15,2013-01-18 16:45:00,
2013-01-18 11:50:00,27.4,19.6,30.39,SW,231,9.0,9.0,72,0.00,,,0.00,Wunderground v.1.15,2013-01-18 16:50:00,
2013-01-18 12:00:00,28.4,20.8,30.37,SW,215,6.0,7.0,73,0.00,,,0.00,Wunderground v.1.15,2013-01-18 17:00:00,
2013-01-18 12:10:00,28.6,20.4,30.36,WSW,239,9.0,12.0,71,0.00,,,0.00,Wunderground v.1.15,2013-01-18 17:10:00,
2013-01-18 12:15:00,28.6,20.4,30.36,SW,226,9.0,17.0,71,0.00,,,0.00,Wunderground v.1.15,2013-01-18 17:15:00,
2013-01-18 12:20:00,28.5,20.3,30.36,SW,226,10.0,15.0,71,0.00,,,0.00,Wunderground v.1.15,2013-01-18 17:20:00,
2013-01-18 12:30:00,29.5,21.3,30.34,SW,225,10.0,11.0,71,0.00,,,0.00,Wunderground v.1.15,2013-01-18 17:30:00,
2013-01-18 12:35:00,30.3,21.3,30.34,SW,218,9.0,11.0,69,0.00,,,0.00,Wunderground v.1.15,2013-01-18 17:35:00,
2013-01-18 12:40:00,30.8,21.5,30.33,SSW,208,10.0,10.0,68,0.00,,,0.00,Wunderground v.1.15,2013-01-18 17:40:00,
2013-01-18 12:45:00,31.0,22.0,30.33,South,170,10.0,10.0,69,0.00,,,0.00,Wunderground v.1.15,2013-01-18 17:45:00,
2013-01-18 12:50:00,31.1,21.4,30.32,SSW,212,10.0,11.0,67,0.00,,,0.00,Wunderground v.1.15,2013-01-18 17:50:00,
2013-01-18 12:55:00,31.1,22.1,30.32,SW,219,10.0,11.0,69,0.00,,,0.00,Wunderground v.1.15,2013-01-18 17:55:00,
2013-01-18 13:00:00,31.0,21.3,30.32,SW,233,9.0,14.0,67,0.00,,,0.00,Wunderground v.1.15,2013-01-18 18:00:00,
2013-01-18 13:10:00,31.0,22.4,30.30,SSW,210,8.0,8.0,70,0.00,,,0.00,Wunderground v.1.15,2013-01-18 18:10:00,
2013-01-18 13:15:00,30.9,22.3,30.30,SSW,210,8.0,8.0,70,0.00,,,0.00,Wunderground v.1.15,2013-01-18 18:15:00,
2013-01-18 13:20:00,30.8,21.8,30.29,SW,215,10.0,14.0,69,0.00,,,0.00,Wunderground v.1.15,2013-01-18 18:20:00,
2013-01-18 13:25:00,30.6,22.3,30.28,SW,226,10.0,14.0,71,0.00,,,0.00,Wunderground v.1.15,2013-01-18 18:25:00,
2013-01-18 13:35:00,30.6,22.0,30.28,SW,236,11.0,13.0,70,0.00,,,0.00,Wunderground v.1.15,2013-01-18 18:35:00,
2013-01-18 13:40:00,30.7,22.1,30.27,SSW,210,11.0,11.0,70,0.00,,,0.00,Wunderground v.1.15,2013-01-18 18:40:00,
2013-01-18 13:45:00,30.9,22.6,30.27,SW,217,11.0,12.0,71,0.00,,,0.00,Wunderground v.1.15,2013-01-18 18:45:00,
2013-01-18 13:50:00,31.1,22.5,30.26,South,170,10.0,10.0,70,0.00,,,0.00,Wunderground v.1.15,2013-01-18 18:50:00,
2013-01-18 13:55:00,31.2,22.5,30.25,SW,236,10.0,14.0,70,0.00,,,0.00,Wunderground v.1.15,2013-01-18 18:55:00,
2013-01-18 14:00:00,31.2,22.9,30.25,SSW,204,11.0,17.0,71,0.00,,,0.00,Wunderground v.1.15,2013-01-18 19:00:00,
2013-01-18 14:10:00,31.3,23.0,30.25,SSW,200,11.0,11.0,71,0.00,,,0.00,Wunderground v.1.15,2013-01-18 19:10:00,
2013-01-18 14:15:00,31.4,22.4,30.24,SSW,205,10.0,14.0,69,0.00,,,0.00,Wunderground v.1.15,2013-01-18 19:15:00,
2013-01-18 14:20:00,31.5,22.8,30.24,SSW,199,11.0,11.0,70,0.00,,,0.00,Wunderground v.1.15,2013-01-18 19:20:00,
2013-01-18 14:25:00,31.8,23.1,30.23,SSW,201,11.0,11.0,70,0.00,,,0.00,Wunderground v.1.15,2013-01-18 19:25:00,
2013-01-18 14:30:00,32.0,22.6,30.23,SW,226,12.0,13.0,68,0.00,,,0.00,Wunderground v.1.15,2013-01-18 19:30:00,
2013-01-18 14:40:00,32.4,23.0,30.22,SSW,208,11.0,13.0,68,0.00,,,0.00,Wunderground v.1.15,2013-01-18 19:40:00,
2013-01-18 14:45:00,32.5,23.1,30.22,SSW,206,11.0,16.0,68,0.00,,,0.00,Wunderground v.1.15,2013-01-18 19:45:00,
2013-01-18 14:50:00,32.9,23.1,30.22,SW,219,12.0,14.0,67,0.00,,,0.00,Wunderground v.1.15,2013-01-18 19:50:00,
2013-01-18 14:55:00,33.3,23.2,30.21,SSW,197,13.0,14.0,66,0.00,,,0.00,Wunderground v.1.15,2013-01-18 19:55:00,
2013-01-18 15:00:00,33.6,23.4,30.20,SSE,149,14.0,14.0,66,0.00,,,0.00,Wunderground v.1.15,2013-01-18 20:00:00,
2013-01-18 15:10:00,33.9,23.4,30.20,SSW,210,13.0,13.0,65,0.00,,,0.00,Wunderground v.1.15,2013-01-18 20:10:00,
2013-01-18 15:15:00,34.3,23.7,30.20,SW,222,12.0,13.0,65,0.00,,,0.00,Wunderground v.1.15,2013-01-18 20:15:00,
2013-01-18 15:20:00,34.5,23.9,30.19,SW,217,11.0,18.0,65,0.00,,,0.00,Wunderground v.1.15,2013-01-18 20:20:00,
2013-01-18 15:25:00,34.7,23.8,30.19,SW,228,13.0,18.0,64,0.00,,,0.00,Wunderground v.1.15,2013-01-18 20:25:00,
2013-01-18 15:30:00,34.8,24.2,30.19,South,188,13.0,17.0,65,0.00,,,0.00,Wunderground v.1.15,2013-01-18 20:30:00,
2013-01-18 15:35:00,35.1,24.5,30.19,SSW,203,12.0,17.0,65,0.00,,,0.00,Wunderground v.1.15,2013-01-18 20:35:00,
2013-01-18 15:45:00,35.4,24.4,30.18,SSW,212,11.0,11.0,64,0.00,,,0.00,Wunderground v.1.15,2013-01-18 20:45:00,
2013-01-18 15:50:00,35.5,24.5,30.18,SSW,210,11.0,12.0,64,0.00,,,0.00,Wunderground v.1.15,2013-01-18 20:50:00,
2013-01-18 15:55:00,35.5,24.5,30.17,SSW,205,11.0,12.0,64,0.00,,,0.00,Wunderground v.1.15,2013-01-18 20:55:00,
2013-01-18 16:00:00,35.7,24.3,30.17,SSW,198,10.0,11.0,63,0.00,,,0.00,Wunderground v.1.15,2013-01-18 21:00:00,
2013-01-18 16:10:00,36.1,25.1,30.16,SW,218,10.0,10.0,64,0.00,,,0.00,Wunderground v.1.15,2013-01-18 21:10:00,
2013-01-18 16:20:00,36.1,24.7,30.16,WSW,239,10.0,10.0,63,0.00,,,0.00,Wunderground v.1.15,2013-01-18 21:20:00,
2013-01-18 16:25:00,36.1,24.3,30.15,SW,224,11.0,11.0,62,0.00,,,0.00,Wunderground v.1.15,2013-01-18 21:25:00,
2013-01-18 16:30:00,36.0,24.2,30.15,SSW,212,13.0,15.0,62,0.00,,,0.00,Wunderground v.1.15,2013-01-18 21:30:00,
2013-01-18 16:35:00,35.9,24.1,30.15,SSW,205,13.0,15.0,62,0.00,,,0.00,Wunderground v.1.15,2013-01-18 21:35:00,
2013-01-18 16:40:00,35.9,24.1,30.14,SW,221,12.0,12.0,62,0.00,,,0.00,Wunderground v.1.15,2013-01-18 21:40:00,
2013-01-18 16:45:00,36.0,24.6,30.14,SSW,203,11.0,12.0,63,0.00,,,0.00,Wunderground v.1.15,2013-01-18 21:45:00,
2013-01-18 16:55:00,35.9,24.5,30.13,WSW,252,11.0,13.0,63,0.00,,,0.00,Wunderground v.1.15,2013-01-18 21:55:00,
2013-01-18 17:00:00,35.8,24.4,30.13,SSE,165,11.0,11.0,63,0.00,,,0.00,Wunderground v.1.15,2013-01-18 22:00:00,
2013-01-18 17:10:00,35.5,24.1,30.13,SW,235,9.0,10.0,63,0.00,,,0.00,Wunderground v.1.15,2013-01-18 22:10:00,
2013-01-18 17:15:00,35.3,24.0,30.12,SW,236,11.0,12.0,63,0.00,,,0.00,Wunderground v.1.15,2013-01-18 22:15:00,
2013-01-18 17:25:00,34.9,23.9,30.11,South,188,9.0,11.0,64,0.00,,,0.00,Wunderground v.1.15,2013-01-18 22:25:00,
2013-01-18 17:30:00,34.7,24.1,30.11,SSW,198,8.0,11.0,65,0.00,,,0.00,Wunderground v.1.15,2013-01-18 22:30:00,
2013-01-18 17:35:00,34.4,24.2,30.11,South,191,8.0,11.0,66,0.00,,,0.00,Wunderground v.1.15,2013-01-18 22:35:00,
2013-01-18 17:40:00,34.0,24.2,30.10,West,272,9.0,9.0,67,0.00,,,0.00,Wunderground v.1.15,2013-01-18 22:40:00,
2013-01-18 17:45:00,33.6,24.2,30.10,SSW,212,9.0,10.0,68,0.00,,,0.00,Wunderground v.1.15,2013-01-18 22:45:00,
2013-01-18 17:50:00,33.5,24.1,30.10,SW,217,9.0,9.0,68,0.00,,,0.00,Wunderground v.1.15,2013-01-18 22:50:00,
2013-01-18 17:55:00,33.5,24.1,30.10,SSW,205,9.0,14.0,68,0.00,,,0.00,Wunderground v.1.15,2013-01-18 22:55:00,
2013-01-18 18:00:00,33.5,23.7,30.10,South,188,10.0,10.0,67,0.00,,,0.00,Wunderground v.1.15,2013-01-18 23:00:00,
2013-01-18 18:10:00,33.3,23.9,30.09,SSW,200,9.0,9.0,68,0.00,,,0.00,Wunderground v.1.15,2013-01-18 23:10:00,
2013-01-18 18:15:00,33.2,23.8,30.09,SSW,203,8.0,12.0,68,0.00,,,0.00,Wunderground v.1.15,2013-01-18 23:15:00,
2013-01-18 18:25:00,33.3,23.5,30.08,SSW,210,10.0,10.0,67,0.00,,,0.00,Wunderground v.1.15,2013-01-18 23:25:00,
2013-01-18 18:30:00,33.2,23.8,30.08,South,182,9.0,9.0,68,0.00,,,0.00,Wunderground v.1.15,2013-01-18 23:30:00,
2013-01-18 18:35:00,33.3,23.5,30.08,SSE,163,9.0,11.0,67,0.00,,,0.00,Wunderground v.1.15,2013-01-18 23:35:00,
2013-01-18 18:40:00,33.3,23.5,30.08,WSW,238,9.0,10.0,67,0.00,,,0.00,Wunderground v.1.15,2013-01-18 23:40:00,
2013-01-18 18:45:00,33.2,23.1,30.07,WSW,239,9.0,10.0,66,0.00,,,0.00,Wunderground v.1.15,2013-01-18 23:45:00,
2013-01-18 18:50:00,33.5,23.4,30.07,SW,214,10.0,10.0,66,0.00,,,0.00,Wunderground v.1.15,2013-01-18 23:50:00,
2013-01-18 19:00:00,33.6,23.1,30.07,WSW,242,9.0,11.0,65,0.00,,,0.00,Wunderground v.1.15,2013-01-19 00:00:00,
2013-01-18 19:10:00,34.1,23.2,30.06,SSW,209,10.0,11.0,64,0.00,,,0.00,Wunderground v.1.15,2013-01-19 00:10:00,
2013-01-18 19:15:00,34.0,23.1,30.06,SW,224,11.0,15.0,64,0.00,,,0.00,Wunderground v.1.15,2013-01-19 00:15:00,
2013-01-18 19:20:00,34.0,23.1,30.06,SW,217,10.0,13.0,64,0.00,,,0.00,Wunderground v.1.15,2013-01-19 00:20:00,
2013-01-18 19:30:00,34.1,23.2,30.06,SSW,203,9.0,10.0,64,0.00,,,0.00,Wunderground v.1.15,2013-01-19 00:30:00,
2013-01-18 19:35:00,34.0,23.1,30.06,SSW,194,9.0,10.0,64,0.00,,,0.00,Wunderground v.1.15,2013-01-19 00:35:00,
2013-01-18 19:40:00,34.1,22.8,30.07,South,187,10.0,10.0,63,0.00,,,0.00,Wunderground v.1.15,2013-01-19 00:40:00,
2013-01-18 19:45:00,34.6,22.9,30.07,SSW,207,11.0,11.0,62,0.00,,,0.00,Wunderground v.1.15,2013-01-19 00:45:00,
2013-01-18 19:50:00,34.8,22.7,30.07,WSW,239,12.0,12.0,61,0.00,,,0.00,Wunderground v.1.15,2013-01-19 00:50:00,
2013-01-18 19:55:00,34.8,23.1,30.07,SSW,207,11.0,12.0,62,0.00,,,0.00,Wunderground v.1.15,2013-01-19 00:55:00,
2013-01-18 20:00:00,34.9,22.8,30.07,South,187,11.0,11.0,61,0.00,,,0.00,Wunderground v.1.15,2013-01-19 01:00:00,
2013-01-18 20:10:00,34.9,22.8,30.06,SW,228,11.0,12.0,61,0.00,,,0.00,Wunderground v.1.15,2013-01-19 01:10:00,
2013-01-18 20:15:00,34.9,23.2,30.06,SW,226,12.0,14.0,62,0.00,,,0.00,Wunderground v.1.15,2013-01-19 01:15:00,
2013-01-18 20:20:00,34.9,23.2,30.06,SSW,205,12.0,12.0,62,0.00,,,0.00,Wunderground v.1.15,2013-01-19 01:20:00,
2013-01-18 20:25:00,34.9,23.2,30.06,WSW,239,12.0,13.0,62,0.00,,,0.00,Wunderground v.1.15,2013-01-19 01:25:00,
2013-01-18 20:35:00,34.9,23.2,30.06,SW,236,11.0,14.0,62,0.00,,,0.00,Wunderground v.1.15,2013-01-19 01:35:00,
2013-01-18 20:40:00,35.0,23.3,30.06,WSW,248,11.0,11.0,62,0.00,,,0.00,Wunderground v.1.15,2013-01-19 01:40:00,
2013-01-18 20:45:00,35.2,23.5,30.05,WSW,245,11.0,12.0,62,0.00,,,0.00,Wunderground v.1.15,2013-01-19 01:45:00,
2013-01-18 20:50:00,35.2,23.5,30.05,SSW,210,12.0,12.0,62,0.00,,,0.00,Wunderground v.1.15,2013-01-19 01:50:00,
2013-01-18 20:55:00,35.2,23.5,30.05,SW,236,11.0,12.0,62,0.00,,,0.00,Wunderground v.1.15,2013-01-19 01:55:00,
2013-01-18 21:00:00,35.3,24.0,30.05,SW,225,11.0,13.0,63,0.00,,,0.00,Wunderground v.1.15,2013-01-19 02:00:00,
2013-01-18 21:10:00,35.4,24.0,30.06,South,191,10.0,10.0,63,0.00,,,0.00,Wunderground v.1.15,2013-01-19 02:10:00,
2013-01-18 21:15:00,35.4,24.0,30.06,WSW,254,10.0,16.0,63,0.00,,,0.00,Wunderground v.1.15,2013-01-19 02:15:00,
2013-01-18 21:20:00,35.4,24.4,30.06,South,181,10.0,10.0,64,0.00,,,0.00,Wunderground v.1.15,2013-01-19 02:20:00,
2013-01-18 21:25:00,35.2,24.2,30.06,SW,221,9.0,10.0,64,0.00,,,0.00,Wunderground v.1.15,2013-01-19 02:25:00,
2013-01-18 21:30:00,35.3,24.3,30.05,SW,225,10.0,10.0,64,0.00,,,0.00,Wunderground v.1.15,2013-01-19 02:30:00,
2013-01-18 21:35:00,35.3,24.3,30.05,South,184,11.0,11.0,64,0.00,,,0.00,Wunderground v.1.15,2013-01-19 02:35:00,
2013-01-18 21:40:00,35.2,24.6,30.05,WSW,252,9.0,9.0,65,0.00,,,0.00,Wunderground v.1.15,2013-01-19 02:40:00,
2013-01-18 21:45:00,35.3,24.7,30.05,WSW,253,8.0,16.0,65,0.00,,,0.00,Wunderground v.1.15,2013-01-19 02:45:00,
2013-01-18 21:50:00,35.4,24.8,30.05,SW,225,10.0,11.0,65,0.00,,,0.00,Wunderground v.1.15,2013-01-19 02:50:00,
2013-01-18 21:55:00,35.3,24.7,30.05,WNW,282,9.0,11.0,65,0.00,,,0.00,Wunderground v.1.15,2013-01-19 02:55:00,
2013-01-18 22:00:00,35.4,24.8,30.05,SW,231,8.0,10.0,65,0.00,,,0.00,Wunderground v.1.15,2013-01-19 03:00:00,
2013-01-18 22:10:00,35.5,25.3,30.05,SW,217,9.0,14.0,66,0.00,,,0.00,Wunderground v.1.15,2013-01-19 03:10:00,
2013-01-18 22:15:00,35.5,25.3,30.05,WSW,248,9.0,14.0,66,0.00,,,0.00,Wunderground v.1.15,2013-01-19 03:15:00,
2013-01-18 22:20:00,35.4,25.2,30.04,SW,236,9.0,9.0,66,0.00,,,0.00,Wunderground v.1.15,2013-01-19 03:20:00,
2013-01-18 22:25:00,35.4,25.2,30.04,SW,226,8.0,14.0,66,0.00,,,0.00,Wunderground v.1.15,2013-01-19 03:25:00,
2013-01-18 22:30:00,35.4,25.2,30.03,SSW,194,9.0,9.0,66,0.00,,,0.00,Wunderground v.1.15,2013-01-19 03:30:00,
2013-01-18 22:35:00,35.4,25.5,30.03,West,260,8.0,11.0,67,0.00,,,0.00,Wunderground v.1.15,2013-01-19 03:35:00,
2013-01-18 22:45:00,35.6,25.4,30.03,WSW,254,8.0,12.0,66,0.00,,,0.00,Wunderground v.1.15,2013-01-19 03:45:00,
2013-01-18 22:50:00,35.6,25.7,30.03,SSW,208,8.0,8.0,67,0.00,,,0.00,Wunderground v.1.15,2013-01-19 03:50:00,
2013-01-18 22:55:00,35.6,25.7,30.03,WSW,242,7.0,10.0,67,0.00,,,0.00,Wunderground v.1.15,2013-01-19 03:55:00,
2013-01-18 23:00:00,35.6,25.7,30.03,SSW,205,7.0,7.0,67,0.00,,,0.00,Wunderground v.1.15,2013-01-19 04:00:00,
2013-01-18 23:10:00,35.6,25.7,30.02,WSW,245,8.0,8.0,67,0.00,,,0.00,Wunderground v.1.15,2013-01-19 04:10:00,
2013-01-18 23:15:00,35.6,25.7,30.02,SW,227,8.0,9.0,67,0.00,,,0.00,Wunderground v.1.15,2013-01-19 04:15:00,
2013-01-18 23:20:00,35.6,25.7,30.02,SW,224,7.0,9.0,67,0.00,,,0.00,Wunderground v.1.15,2013-01-19 04:20:00,
2013-01-18 23:25:00,35.7,25.8,30.02,South,187,8.0,9.0,67,0.00,,,0.00,Wunderground v.1.15,2013-01-19 04:25:00,
2013-01-18 23:30:00,35.7,25.8,30.02,SSW,194,9.0,12.0,67,0.00,,,0.00,Wunderground v.1.15,2013-01-19 04:30:00,
2013-01-18 23:35:00,35.8,25.9,30.02,SW,231,8.0,12.0,67,0.00,,,0.00,Wunderground v.1.15,2013-01-19 04:35:00,
2013-01-18 23:40:00,35.7,25.8,30.01,South,186,8.0,8.0,67,0.00,,,0.00,Wunderground v.1.15,2013-01-19 04:40:00,
2013-01-18 23:50:00,35.9,26.0,30.01,South,184,8.0,8.0,67,0.00,,,0.00,Wunderground v.1.15,2013-01-19 04:50:00,
2013-01-18 23:55:00,36.1,26.2,30.01,SSW,212,8.0,8.0,67,0.00,,,0.00,Wunderground v.1.15,2013-01-19 04:55:00,